Probability
3 3 4 6 7 10 14 18 20 21 25 27 23 18 13 9 7 4 2 1 0 0 0 0 0 0 0 0 0 0 0 0 0 0 0 0 0 0 0 0 0 0 0
3 3 3 5 6 7 10 14 16 19 25 28 25 19 16 12 9 6 5 3 2 1 1 1 0 0 0 1 1 0 0 0 0 0 0 0 0 0 0 0 0 0 0
1 2 2 3 4 4 5 8 10 14 23 28 26 23 20 17 13 10 8 6 5 4 3 2 1 0 1 2 1 0 0 0 0 0 0 0 0 0 0 0 0 0 0
0 0 0 1 3 3 3 3 5 9 17 25 26 25 24 21 16 12 9 7 6 6 5 3 1 1 2 2 1 0 0 0 0 0 0 0 0 0 0 0 0 0 0
0 0 0 1 2 3 3 3 3 6 11 18 22 23 23 19 15 12 9 7 6 5 4 2 2 2 2 2 1 0 0 0 0 0 0 0 0 0 0 0 0 0 0
0 0 0 0 1 2 2 2 2 3 6 11 15 17 16 14 11 10 9 7 6 4 2 1 1 1 2 2 1 0 0 0 0 0 0 0 0 0 0 0 0 0 0
0 0 0 0 0 1 1 1 2 3 3 6 10 11 11 11 10 8 9 8 6 4 2 1 1 1 1 1 1 0 0 0 0 0 0 0 0 0 0 0 0 0 0
0 0 0 0 0 0 0 1 2 2 3 4 7 7 8 9 9 7 8 8 7 5 3 2 2 2 2 1 0 1 1 1 1 1 1 1 1 0 0 0 0 0 0
0 0 0 0 0 0 0 0 1 1 1 2 4 4 5 7 7 7 6 6 4 3 3 3 3 3 3 1 1 2 2 2 2 2 2 2 1 0 0 0 0 0 0
0 0 0 0 0 0 0 0 0 0 0 1 1 1 3 4 5 5 5 4 2 1 2 3 3 3 3 2 2 2 2 1 1 1 1 1 1 0 0 0 0 0 0
0 0 0 0 0 0 0 0 0 0 0 0 0 0 1 2 3 4 4 3 1 1 2 3 3 3 2 2 2 2 1 0 0 0 0 0 0 0 0 0 0 0 0
0 0 0 0 0 0 0 0 0 0 0 0 0 0 0 1 2 3 4 3 1 1 2 2 2 2 1 0 1 1 0 0 0 0 0 0 0 0 0 0 0 0 0
0 0 0 0 0 0 0 0 0 0 0 0 0 0 0 0 2 3 4 3 2 1 1 1 1 1 0 0 0 0 0 0 0 0 0 0 0 0 0 0 0 0 0
0 0 0 0 0 0 0 0 0 0 0 0 0 0 0 0 1 2 2 2 2 1 0 0 0 0 0 0 0 0 0 0 0 0 0 0 0 0 0 0 0 0 0
0 0 0 0 0 0 0 0 0 0 0 0 0 0 0 0 0 1 1 1 1 0 0 0 0 0 0 0 0 0 0 0 0 0 0 0 0 0 0 0 0 0 0
0 0 0 0 0 0 0 0 0 0 0 0 0 0 0 0 0 0 0 0 0 0 0 0 0 0 0 0 0 0 0 0 0 0 0 0 0 0 0 0 0 0 0
0 0 0 0 0 0 0 0 0 0 0 0 0 0 0 0 0 0 0 0 0 0 0 0 0 0 0 0 0 0 0 0 0 0 0 0 0 0 0 0 0 0 0
0 0 0 0 0 0 0 0 0 0 0 0 0 0 0 0 0 0 0 0 0 0 0 0 0 0 0 0 0 0 0 0 0 0 0 0 0 0 0 0 0 0 0
0 0 0 0 0 0 0 0 0 0 0 0 0 0 0 0 0 0 0 0 0 0 0 0 0 0 0 0 0 0 0 0 0 0 0 0 0 0 0 0 0 0 0
0 0 0 0 0 0 0 0 0 0 0 0 0 0 0 0 0 0 0 0 0 0 0 0 0 0 0 0 0 0 0 0 0 0 0 0 0 0 0 0 0 0 0
0 0 0 0 0 0 0 0 0 0 0 0 0 0 0 0 0 0 0 0 0 0 0 0 0 0 0 0 0 0 0 0 0 0 0 0 0 0 0 0 0 0 0
0 0 0 0 0 0 0 0 0 0 0 0 0 0 0 0 0 0 0 0 0 0 0 0 0 0 0 0 0 0 0 0 0 0 0 0 0 0 0 0 0 0 0
0 0 0 0 0 0 0 0 0 0 0 0 0 0 0 0 0 0 0 0 0 0 0 0 0 0 0 0 0 0 0 0 0 0 0 0 0 0 0 0 0 0 0
0 0 0 0 0 0 0 0 0 0 0 0 0 0 0 0 0 0 0 0 0 0 0 0 0 0 0 0 0 0 0 0 0 0 0 0 0 0 0 0 0 0 0
0 0 0 0 0 0 0 0 0 0 0 0 0 0 0 0 0 0 0 0 0 0 0 0 0 0 0 0 0 0 0 0 0 0 0 0 0 0 0 0 0 0 0
0 0 0 0 0 0 0 0 0 0 0 0 0 0 0 0 0 0 0 0 0 0 0 0 0 0 0 0 0 0 0 0 0 0 0 0 0 0 0 0 0 0 0
Wind_Speed
4 3 3 2 3 5 6 8 8 8 7 6 7 7 6 6 5 5 7 8 7 8 7 5 5 5 5 5 5 3 3 2 2 1 2 2 2 2 2 2 2 2 2
2 2 2 2 5 6 6 7 7 7 7 6 6 4 5 5 5 5 6 7 8 8 7 7 6 6 5 5 5 4 3 2 2 2 1 2 3 2 1 1 1 1 0
4 3 2 2 3 5 7 6 7 7 7 6 4 3 3 3 3 4 5 6 7 7 7 7 5 5 5 5 5 5 5 3 2 2 3 2 3 3 2 1 1 1 0
3 3 2 2 2 3 4 5 5 6 6 7 7 8 6 6 6 5 4 4 5 6 6 6 6 6 5 5 5 5 4 4 3 2 2 3 3 2 3 2 0 0 0
3 3 3 2 2 1 2 3 4 4 4 6 7 7 5 4 3 4 5 5 5 5 6 7 7 6 5 5 5 5 5 4 4 3 2 2 2 3 3 4 2 1 1
3 3 2 1 1 1 1 1 3 3 3 4 5 6 7 6 5 6 6 5 4 4 6 6 6 6 5 5 5 5 5 5 4 3 3 3 3 3 3 4 3 3 2
2 3 4 3 1 1 1 1 2 2 3 4 4 6 7 7 7 6 6 5 4 4 6 5 5 4 4 4 4 4 4 4 4 4 3 3 3 2 3 3 3 3 2
3 3 3 3 2 2 1 0 1 2 2 3 3 3 4 4 4 5 5 5 5 5 5 5 5 4 5 4 4 4 3 3 4 4 3 3 3 2 2 2 2 3 3
4 4 4 3 3 2 2 1 0 0 1 2 2 2 2 4 5 6 5 4 4 3 5 5 5 4 4 4 4 3 3 3 3 3 3 2 1 1 1 1 2 3 3
4 4 4 4 3 2 1 1 1 1 1 1 2 1 2 2 3 4 4 4 4 4 5 5 4 4 4 4 3 3 2 3 2 2 2 2 1 1 1 1 1 2 3
5 4 4 3 3 2 2 2 1 0 0 1 1 2 1 1 2 3 4 4 4 4 5 5 5 4 4 3 3 3 3 3 2 2 2 2 1 1 0 0 1 1 2
5 4 4 4 3 3 2 2 1 1 0 1 2 2 2 2 2 3 3 4 5 4 5 5 5 4 4 4 4 4 4 4 4 3 2 2 1 1 1 1 1 1 1
6 5 4 4 4 3 3 2 1 1 1 1 1 2 2 2 2 3 3 4 4 4 4 5 5 5 4 4 4 4 3 3 3 3 3 2 2 1 1 1 1 1 1
5 5 5 4 4 3 3 2 2 1 1 1 1 2 2 2 2 3 3 3 4 5 5 5 5 5 4 4 4 4 3 3 2 2 2 3 3 2 2 1 1 1 1
5 5 5 5 5 4 4 3 2 2 1 1 1 1 1 2 2 3 3 3 4 4 5 5 5 4 4 4 4 4 4 3 3 2 2 2 2 3 2 2 2 1 1
6 5 5 5 5 5 5 4 3 2 0 1 1 1 1 2 2 3 3 4 4 4 4 4 5 4 3 5 6 5 4 3 3 3 2 1 2 2 2 2 2 2 2
7 7 6 6 5 5 5 4 4 3 0 0 1 1 2 2 2 3 4 4 4 4 4 4 4 4 4 6 6 6 4 3 3 3 2 1 2 2 2 2 2 1 0
7 7 7 6 5 5 5 4 3 2 1 1 1 1 2 3 3 3 4 4 4 4 4 4 4 3 4 6 6 6 4 3 3 3 3 3 2 2 3 2 2 1 2
7 6 6 5 5 5 5 4 3 2 2 2 2 2 2 3 3 4 4 3 4 3 3 3 4 4 3 5 6 6 4 3 2 2 3 3 3 5 5 3 2 0 1
6 6 6 5 5 5 4 3 3 3 3 3 2 2 2 3 3 4 3 3 3 4 4 3 3 4 4 6 7 6 3 3 2 2 2 5 5 6 6 4 3 3 2
6 6 6 5 5 5 4 3 3 4 4 3 2 1 1 2 3 3 3 3 3 3 3 3 2 3 4 5 6 7 3 4 3 2 2 3 6 6 6 5 4 5 3
7 6 5 6 5 5 4 4 4 4 3 3 2 2 1 1 2 3 3 3 4 4 3 2 2 2 2 4 6 8 7 6 4 3 3 3 6 7 6 5 5 6 4
6 6 5 6 6 5 4 4 5 4 3 2 2 2 1 0 1 3 3 3 3 3 3 3 3 2 2 3 7 8 8 8 4 4 6 7 7 6 4 5 6 4 3
6 6 5 6 6 5 5 4 4 3 2 2 2 1 1 0 0 1 2 3 4 4 4 4 3 3 2 3 3 3 3 5 4 3 5 6 6 4 4 3 2 2 3
6 6 5 6 6 6 5 5 4 3 2 2 2 1 1 0 0 0 1 2 3 4 4 4 4 4 4 5 8 5 4 4 4 3 2 2 2 2 2 2 2 2 2
6 6 6 6 6 5 5 5 4 2 2 2 2 1 1 0 0 0 1 1 2 4 5 5 5 4 7 7 8 9 9 10 9 5 3 4 4 4 4 4 3 3 4
Wind_Direction
265 275 236 206 203 203 198 196 191 185 178 182 181 182 185 181 180 184 185 186 187 185 184 188 180 179 186 189 182 171 178 191 159 142 303 295 264 253 254 249 242 244 239
291 289 266 203 203 206 204 200 199 190 189 193 186 182 173 178 182 183 187 188 186 185 187 186 187 185 185 184 183 174 165 175 164 156 144 317 326 323 294 293 248 258 245
272 282 274 245 211 204 203 204 203 196 196 191 176 161 147 142 168 185 192 190 185 185 183 183 183 184 187 191 190 183 176 182 189 177 164 185 250 300 309 329 354 358 7
286 287 285 281 240 221 192 189 196 200 201 193 186 185 188 188 192 185 185 179 183 187 185 181 182 184 188 187 185 183 182 173 188 199 208 205 184 216 293 301 310 17 323
282 286 289 281 269 225 180 169 177 192 196 194 189 187 190 194 175 164 175 183 181 186 188 187 185 184 186 189 183 182 186 188 189 184 179 203 214 211 231 271 280 285 238
299 302 313 332 346 29 77 128 148 179 182 185 183 183 188 187 172 178 188 190 184 190 195 189 188 185 182 185 187 187 189 194 193 189 183 182 191 200 212 242 254 262 251
308 324 337 348 348 4 46 119 141 186 195 180 188 190 192 185 182 188 194 188 188 198 199 188 186 185 183 180 177 184 193 196 195 199 204 209 219 200 200 231 253 254 255
339 334 335 343 342 354 4 25 143 193 198 184 190 195 188 176 175 183 183 185 194 198 188 180 177 177 173 173 177 184 193 191 201 206 203 209 219 209 203 211 234 262 258
351 350 348 344 342 356 359 327 110 216 219 176 172 191 183 180 182 181 181 176 179 175 168 167 168 167 165 169 173 180 186 187 198 197 194 199 207 202 204 213 213 230 262
356 357 352 346 340 343 6 26 50 188 215 161 166 178 182 192 177 159 164 162 162 155 147 149 150 150 148 148 150 149 148 150 156 158 161 174 184 161 166 211 228 227 241
347 346 339 336 340 357 11 24 18 38 124 152 149 142 139 131 139 148 155 153 143 144 144 146 145 141 136 134 135 136 138 140 134 129 146 157 146 142 163 199 218 236 238
348 342 337 343 353 360 5 8 9 5 326 163 143 142 133 128 134 144 146 141 138 139 137 137 134 131 130 134 141 142 141 145 149 148 146 155 138 151 166 174 214 231 230
348 349 353 354 349 350 354 353 3 355 348 97 132 132 133 137 144 146 138 134 135 133 130 135 138 136 137 135 133 136 141 148 153 155 159 164 157 174 183 168 202 232 242
346 351 351 347 343 343 342 338 338 332 328 111 130 145 153 151 148 138 133 138 141 140 138 134 133 134 134 132 131 131 130 131 133 143 153 163 173 181 180 184 201 202 213
350 349 344 339 339 340 337 333 327 326 334 109 130 175 149 133 130 133 134 134 135 136 134 129 125 127 132 140 141 138 140 141 136 131 141 156 165 179 180 182 190 180 192
343 341 338 336 335 330 327 325 318 311 299 156 200 181 149 143 147 151 144 139 139 135 133 138 139 139 141 152 154 148 148 150 150 152 148 148 149 157 155 158 161 168 178
334 331 328 324 322 320 318 316 310 312 313 211 228 204 181 173 174 167 158 158 155 146 144 146 143 143 153 162 163 160 148 153 160 164 163 157 149 122 104 94 69 57 81
332 329 327 325 323 323 323 318 315 313 292 246 240 217 193 191 181 175 177 168 155 153 153 154 153 152 169 171 167 161 142 146 161 170 172 169 164 166 153 130 97 56 19
325 323 322 318 323 326 326 328 326 322 307 282 273 250 209 195 186 188 185 170 156 157 157 159 161 162 175 179 172 158 141 152 171 177 178 177 185 202 179 153 153 154 337
332 331 332 333 334 327 327 332 320 315 301 291 284 270 223 201 201 194 181 168 162 165 158 161 168 170 181 188 184 171 151 164 180 185 196 205 206 212 196 171 175 203 224
328 331 334 333 327 325 335 335 322 311 307 305 306 297 253 214 198 181 169 161 158 156 157 162 170 178 190 194 196 190 169 177 182 192 200 214 219 218 210 195 190 215 197
330 333 334 331 330 333 337 330 318 314 319 322 323 311 288 230 171 162 161 159 158 160 164 168 185 194 196 200 207 208 204 194 186 199 201 210 220 220 220 209 208 215 187
325 325 324 323 327 333 330 318 315 319 323 331 327 316 304 239 168 168 167 161 166 173 181 184 200 214 201 211 220 219 215 211 198 199 205 212 218 217 222 220 217 205 166
321 322 321 320 322 329 328 317 315 321 326 324 320 319 315 342 122 160 171 178 183 186 190 194 202 211 214 212 210 212 217 215 207 199 209 215 217 203 204 219 220 183 183
319 321 317 313 313 319 323 327 328 329 322 311 308 315 316 284 209 191 207 209 210 202 197 199 194 196 218 222 211 198 197 189 188 164 154 163 173 191 198 201 205 198 198
316 318 317 314 312 314 316 319 318 314 309 305 303 301 300 285 237 240 328 291 250 240 232 224 216 221 226 229 223 221 220 215 203 184 185 198 203 210 211 212 212 208 212